Weather History for Keahole Point, HI

Change the Weather History Date:

Wednesday, November 21, 2012

  Actual Average Record
Temperature  
Mean Temperature 78 °F -  
Max Temperature 80 °F 81 °F 89 °F (1986)
Min Temperature 75 °F 70 °F 67 °F (1993)
Cooling Degree Days 12    
Growing Degree Days 28 (Base 50)    
Moisture  
Dew Point 68 °F    
Average Humidity 73    
Maximum Humidity 79    
Minimum Humidity 66    
Precipitation  
Precipitation 0.00 in - - ()
Sea Level Pressure  
Sea Level Pressure 29.95 in    
Wind  
Wind Speed 4 mph (West)    
Max Wind Speed 9 mph    
Max Gust Speed -    
Visibility 10 miles    
Events      
Averages and records for this station are not official NWS values.
T = Trace of Precipitation, MM = Missing Value Source: NWS Daily Summary

Daily Weather History Graph

Daily Weather History Graph

Search for Another Location

Airport:

Trip Planner

Search our weather history database for the weather conditions in past years. The results will help you decide how hot, cold, wet, or windy it might be!

Date:

Astronomy

Nov. 21, 2012 Rise Set
Actual Time 6:36 AM HST 5:43 PM HST
Civil Twilight 6:13 AM HST 6:07 PM HST
Nautical Twilight 5:46 AM HST 6:34 PM HST
Astronomical Twilight 5:19 AM HST 7:00 PM HST
Moon 1:23 PM HST (11/21) 12:53 AM HST (11/21)
Length of Visible Light 11h 54m
Length of Day
11h 07m
Waxing Gibbous, 63% of the Moon is Illuminated
Nov 21
Waxing Gibbous
Nov 28
Full
Dec 6
Last Quarter
Dec 12
New
Dec 19
First Quarter

Hourly Weather History & Observations

Time (HST) Temp. Heat Index Dew Point Humidity Pressure Visibility Wind Dir Wind Speed Gust Speed Precip Events Conditions
12:53 AM 75.9 °F - 64.9 °F 69% 29.97 in 10.0 mi ESE 4.6 mph - N/A   Clear
1:53 AM 75.9 °F - 64.9 °F 69% 29.96 in 10.0 mi ESE 4.6 mph - N/A   Clear
2:53 AM 75.9 °F - 64.9 °F 69% 29.95 in 10.0 mi Calm Calm - N/A   Clear
3:53 AM 75.9 °F - 64.9 °F 69% 29.94 in 10.0 mi ENE 3.5 mph - N/A   Partly Cloudy
4:53 AM 75.0 °F - 64.0 °F 69% 29.94 in 10.0 mi NNE 3.5 mph - N/A   Clear
5:53 AM 75.9 °F - 64.9 °F 69% 29.94 in 10.0 mi Calm Calm - N/A   Mostly Cloudy
6:53 AM 75.0 °F - 66.0 °F 73% 29.97 in 10.0 mi East 3.5 mph - N/A   Partly Cloudy
7:53 AM 78.1 °F - 66.0 °F 66% 29.96 in 10.0 mi Calm Calm - N/A   Clear
8:53 AM 78.1 °F - 66.9 °F 68% 29.99 in 10.0 mi Calm Calm - N/A   Clear
9:53 AM 79.0 °F - 69.1 °F 72% 30.00 in 10.0 mi West 3.5 mph - N/A   Mostly Cloudy
10:53 AM 79.0 °F - 70.0 °F 74% 29.98 in 10.0 mi WSW 6.9 mph - N/A   Mostly Cloudy
11:53 AM 79.0 °F - 70.0 °F 74% 29.95 in 10.0 mi West 6.9 mph - N/A   Mostly Cloudy
12:01 PM 78.8 °F - 69.8 °F 74% 29.94 in 10.0 mi WSW 9.2 mph - N/A   Mostly Cloudy
12:53 PM 80.1 °F 83.2 °F 70.0 °F 71% 29.92 in 10.0 mi West 6.9 mph - N/A   Scattered Clouds
1:53 PM 80.1 °F 83.2 °F 70.0 °F 71% 29.90 in 10.0 mi West 8.1 mph - N/A   Partly Cloudy
2:53 PM 79.0 °F - 70.0 °F 74% 29.89 in 10.0 mi SW 5.8 mph - N/A   Clear
3:53 PM 79.0 °F - 69.1 °F 72% 29.90 in 10.0 mi West 6.9 mph - N/A   Mostly Cloudy
4:53 PM 78.1 °F - 70.0 °F 76% 29.91 in 10.0 mi WNW 4.6 mph - N/A   Partly Cloudy
5:53 PM 78.1 °F - 70.0 °F 76% 29.93 in 10.0 mi NW 5.8 mph - N/A   Overcast
6:53 PM 78.1 °F - 70.0 °F 76% 29.94 in 10.0 mi NW 3.5 mph - N/A   Mostly Cloudy
7:53 PM 77.0 °F - 70.0 °F 79% 29.96 in 10.0 mi WNW 3.5 mph - N/A   Partly Cloudy
8:53 PM 77.0 °F - 69.1 °F 76% 29.97 in 10.0 mi Calm Calm - N/A   Clear
9:20 PM 77.0 °F - 69.8 °F 78% 29.98 in 10.0 mi Calm Calm - N/A   Mostly Cloudy
9:53 PM 77.0 °F - 70.0 °F 79% 29.98 in 10.0 mi Calm Calm - N/A   Mostly Cloudy
10:53 PM 77.0 °F - 69.1 °F 76% 29.98 in 10.0 mi Calm Calm - N/A   Mostly Cloudy
11:38 PM 77.0 °F - 69.8 °F 78% 29.96 in 10.0 mi Calm Calm - N/A   Mostly Cloudy
11:51 PM 77.0 °F - 69.8 °F 78% 29.96 in 10.0 mi SE 3.5 mph - N/A   Scattered Clouds
11:53 PM 75.9 °F - 69.1 °F 79% 29.96 in 10.0 mi Calm Calm - N/A   Scattered Clouds